Theta_e
298 298 298 298 299 299 299 298 298 298 299 299 300 300 300 300 300 301 301 301 301 302 303 303 303 303 303 301 301 302 302 301 301 302 303 303 304 304 305 305 306 307 308 312 313 308 305 306 307 310 310 310 308 307 307 306 306 309 309 310 314 316 315 315 318 320 319 315 312 310 310 310 310 312 312 312 316 318 321 329 328 322 324 327 326 325 331
297 298 298 298 298 299 299 298 298 299 299 300 300 300 300 300 300 301 301 301 301 302 301 302 303 303 302 302 302 302 302 302 303 303 304 304 305 305 306 306 307 309 311 313 314 311 307 306 306 309 309 308 307 306 306 306 307 308 309 311 313 311 314 319 318 316 315 315 313 310 309 311 314 316 313 310 315 319 321 323 323 320 325 328 324 326 335
297 298 298 298 298 298 298 298 298 299 300 300 300 300 300 300 301 301 301 301 301 301 301 301 303 303 303 303 304 304 304 304 303 304 304 304 304 304 306 306 305 307 312 316 315 313 310 307 306 309 311 310 308 305 305 308 307 307 310 310 311 313 317 319 320 322 322 319 318 318 314 313 315 316 313 310 314 317 317 318 318 316 319 323 325 330 333
297 298 298 298 298 298 298 298 299 299 300 300 301 301 300 301 301 301 301 301 301 301 301 301 302 303 303 304 305 306 306 305 305 304 304 304 304 304 305 305 306 308 314 319 317 314 314 310 305 309 315 318 313 306 305 308 306 308 312 309 312 319 319 317 324 329 327 321 321 321 316 312 314 314 312 312 313 316 320 322 321 318 318 323 330 332 331
297 298 298 298 298 298 297 298 299 300 301 301 301 301 301 301 301 301 301 302 301 301 301 302 302 302 303 304 305 306 306 306 307 306 306 306 305 305 305 305 308 313 316 319 318 315 317 315 309 312 319 322 319 310 306 306 308 313 315 310 315 320 315 317 323 322 319 318 318 318 317 317 318 316 313 313 316 318 320 321 323 322 319 324 329 329 334
298 298 298 298 298 298 296 297 299 300 301 302 302 301 301 302 301 301 302 303 303 302 302 302 302 302 303 303 304 305 305 306 307 307 307 308 306 307 308 308 311 316 316 317 318 317 319 318 315 318 320 321 323 318 309 307 309 315 316 312 315 319 313 316 322 321 321 322 320 322 326 326 327 325 319 317 318 317 317 322 326 323 322 330 331 329 334
298 298 298 298 298 298 297 297 299 300 302 302 302 302 302 302 302 302 302 302 303 303 303 302 303 303 304 304 304 305 305 305 307 307 308 310 309 309 312 312 314 316 317 318 318 316 318 319 317 318 319 319 323 321 313 310 310 314 316 312 313 316 314 319 328 327 324 324 322 323 327 328 330 328 325 324 321 320 323 326 324 323 328 336 332 327 329
297 298 299 298 298 298 298 298 299 300 301 302 302 302 302 302 303 302 302 302 302 302 302 303 304 304 305 305 305 305 306 308 309 309 309 313 314 312 314 314 314 316 316 316 317 315 316 318 317 316 318 320 322 321 317 315 313 313 314 312 311 312 314 322 332 329 322 323 323 321 323 329 331 325 322 325 325 325 330 330 326 330 334 329 325 326 327
297 297 298 299 298 298 298 298 299 300 300 301 302 302 302 303 303 303 303 303 303 303 302 303 304 305 306 306 307 307 309 309 309 310 311 312 313 313 314 315 316 318 317 315 316 314 314 315 315 314 317 317 318 319 317 317 317 314 313 314 314 314 316 320 325 325 321 322 323 322 322 325 327 326 323 326 326 326 328 326 326 334 335 325 325 332 330
298 297 297 298 298 298 298 298 298 299 299 301 302 302 303 303 303 303 303 304 304 303 303 304 305 307 307 308 308 309 309 309 309 311 312 310 311 311 312 314 317 320 318 315 315 314 312 314 314 313 315 315 315 316 314 315 319 317 317 320 319 319 322 321 322 323 322 321 323 324 324 324 324 323 321 321 322 323 326 325 323 327 328 327 332 335 330
298 298 297 298 298 298 298 298 298 299 299 300 300 301 302 302 303 303 303 304 304 303 304 306 307 307 308 308 308 308 309 309 310 310 312 311 311 311 310 312 317 320 316 314 314 313 312 315 315 314 315 314 314 314 313 315 316 315 319 324 321 320 322 322 325 327 324 323 322 318 318 324 322 317 316 318 319 322 328 329 325 323 323 323 326 327 324
298 298 298 298 298 299 299 298 299 299 299 300 300 301 302 302 303 304 304 304 305 304 304 306 306 306 307 308 308 308 309 310 309 309 311 311 311 311 310 311 315 316 314 313 313 313 314 316 317 316 316 315 314 315 316 318 316 311 313 319 319 320 322 323 326 327 324 323 321 316 320 325 320 314 315 317 317 319 322 323 320 320 322 322 321 322 323
298 298 298 298 299 299 299 299 299 299 299 300 300 300 302 303 303 304 304 304 305 305 305 305 305 306 307 309 309 308 309 309 309 309 310 311 312 312 311 312 313 313 313 313 313 314 317 318 319 320 320 320 323 323 320 320 319 314 314 317 317 319 323 326 323 320 321 322 319 318 320 318 316 317 318 317 318 320 322 323 323 322 322 322 322 322 322
298 298 298 299 299 300 300 299 299 299 300 300 300 300 301 302 303 304 304 305 305 305 305 305 306 307 308 309 309 309 309 309 310 310 310 310 312 311 311 313 313 313 313 313 313 314 317 319 322 322 322 324 327 325 321 319 320 320 318 318 317 317 321 325 320 317 320 322 320 320 320 318 320 324 321 318 320 322 327 332 331 324 319 319 322 322 322
299 298 298 299 299 300 301 300 300 300 299 300 300 300 300 301 303 303 304 305 305 305 305 306 307 307 308 309 309 310 310 310 311 312 311 310 311 311 312 313 312 313 313 313 315 318 317 317 319 320 321 322 321 320 320 319 319 320 318 317 319 318 319 321 319 316 319 322 321 321 321 322 328 328 321 316 317 318 323 331 335 326 318 318 322 322 321
298 299 299 298 299 300 300 300 300 300 299 299 299 300 300 301 302 303 304 304 305 306 306 306 307 307 308 309 309 309 310 310 311 313 314 313 311 310 312 312 312 312 312 311 314 318 319 317 319 319 319 318 318 318 318 318 320 321 319 318 318 317 319 322 320 317 318 322 324 324 324 325 328 326 318 314 315 315 315 323 335 330 318 317 321 320 319
298 298 299 298 298 299 300 300 300 300 300 299 299 300 300 301 302 303 304 304 304 305 306 307 307 307 308 309 309 309 309 310 311 312 313 313 311 310 311 312 311 311 312 314 315 318 321 319 319 320 318 316 316 317 316 318 321 320 321 323 321 320 323 324 321 320 320 321 321 322 322 323 321 319 317 315 316 316 315 324 336 329 317 318 322 319 319
297 298 299 298 297 298 299 300 300 300 299 299 299 299 300 301 303 303 304 304 304 304 306 307 306 306 307 308 308 309 309 310 310 311 311 311 311 311 310 311 312 311 311 315 319 320 321 319 318 321 321 316 314 315 316 318 320 319 320 322 322 322 323 322 321 322 321 322 323 321 321 322 318 316 317 316 315 317 322 329 329 320 315 319 320 319 320
297 298 298 297 296 297 299 300 300 299 299 298 298 299 300 302 303 303 303 304 304 304 306 307 306 307 308 308 308 309 309 309 310 310 312 312 311 310 310 310 312 311 310 314 320 319 318 317 315 317 322 319 314 315 317 316 317 317 318 318 320 321 320 318 319 318 318 324 326 321 318 319 317 316 315 314 318 325 328 324 317 315 317 321 320 319 320
296 297 297 296 296 297 299 300 299 298 297 298 298 298 299 301 303 303 302 302 302 304 306 307 307 307 307 307 307 308 308 308 309 310 311 312 309 311 314 313 312 311 310 314 316 314 316 318 314 314 320 321 316 315 317 318 316 315 317 319 321 320 318 320 319 316 318 323 324 320 319 316 314 317 318 317 321 326 323 317 315 316 319 320 319 319 320
296 296 296 296 297 299 300 299 298 297 297 297 298 298 299 300 301 301 301 301 301 303 306 307 306 306 307 307 307 307 307 308 309 309 309 310 309 311 314 313 311 312 313 315 315 313 314 317 314 313 316 316 313 313 317 320 318 314 314 317 317 315 318 324 321 317 322 329 325 320 320 315 312 318 321 319 319 319 317 316 318 319 319 320 320 319 319
295 296 296 296 298 299 299 297 296 297 297 297 298 299 300 299 299 300 302 302 302 303 306 307 306 307 308 308 308 308 308 308 309 309 308 309 308 310 310 310 310 311 312 313 313 312 313 315 315 316 317 316 314 314 315 318 321 317 314 315 315 313 314 318 319 316 319 324 321 315 312 310 311 315 316 316 316 316 317 318 319 319 320 320 319 319 319
295 296 296 297 298 299 298 296 296 297 297 298 298 299 300 301 301 302 303 303 303 305 306 307 307 307 308 308 308 309 309 309 310 309 309 309 309 309 309 309 311 311 311 311 311 310 314 315 315 317 319 317 317 317 315 316 321 319 315 314 313 310 308 311 317 316 313 313 313 310 310 311 312 313 314 315 316 316 317 318 319 320 320 319 319 319 318
296 296 296 298 298 298 297 296 297 297 298 298 298 299 301 301 302 303 303 303 304 306 308 307 307 307 308 308 308 308 308 309 309 308 308 309 309 310 310 310 310 310 310 311 310 309 312 312 311 315 318 315 315 318 319 319 319 318 317 317 314 310 310 313 317 317 316 316 313 309 310 311 311 313 315 315 316 317 317 318 319 320 320 320 319 319 318
296 297 297 297 297 297 297 297 297 298 298 298 299 300 301 301 302 302 303 303 303 305 307 308 307 306 307 307 307 307 307 308 309 309 309 309 309 311 311 310 310 310 309 310 310 309 311 312 312 316 318 313 312 316 317 316 316 315 317 319 315 311 311 315 317 315 316 316 312 308 310 311 311 313 315 314 315 316 317 318 319 319 320 320 319 319 318
296 297 298 297 296 297 297 297 298 298 299 299 299 300 301 303 304 304 304 304 304 304 305 306 307 306 307 307 307 307 308 309 309 309 310 310 309 310 310 309 310 309 308 309 309 308 310 313 316 319 318 313 312 315 315 313 312 314 315 315 311 311 312 314 315 315 315 314 311 309 311 313 311 312 313 313 314 314 315 317 318 318 319 319 318 318 319
296 297 298 297 297 297 297 297 298 299 300 301 300 300 303 306 307 307 306 305 306 307 306 307 308 306 306 307 307 307 308 309 309 309 309 309 309 309 309 309 309 308 308 310 311 310 311 314 315 315 314 312 311 312 311 310 311 314 315 311 308 311 313 313 314 317 318 315 312 312 315 317 314 312 313 313 313 313 315 316 317 317 318 318 317 317 317
297 297 298 298 299 298 297 297 299 301 302 302 301 302 307 310 309 309 308 307 307 308 308 306 307 306 306 307 307 307 309 309 308 308 308 308 308 308 308 308 308 308 308 310 311 312 314 316 313 309 308 310 311 311 309 309 312 315 315 310 308 310 312 312 315 319 317 313 311 311 314 314 312 311 312 313 312 313 315 315 316 316 317 317 317 316 314
297 297 299 300 300 299 297 297 299 301 302 302 302 305 310 311 310 310 310 309 308 308 307 307 308 308 307 307 307 307 308 309 309 308 308 308 308 308 308 308 308 308 309 309 310 309 309 310 309 308 308 308 311 313 312 313 316 317 313 309 308 309 309 310 313 314 312 311 312 312 313 313 312 312 313 312 312 313 314 314 315 316 315 315 316 316 315
297 298 299 301 301 301 298 297 299 301 302 303 303 305 308 310 309 308 309 309 309 308 307 308 310 309 307 306 307 307 307 308 308 308 308 308 307 307 308 308 309 308 309 310 309 308 307 306 307 309 309 307 309 313 312 312 314 314 310 307 309 309 309 310 310 311 311 312 312 312 312 313 312 312 312 312 312 313 313 314 314 314 314 314 314 314 315
297 299 300 301 302 302 299 298 299 301 302 304 304 304 306 308 308 306 306 307 308 308 306 307 309 308 307 306 306 305 306 306 307 307 308 308 308 308 308 307 308 308 308 308 307 307 307 307 306 307 308 307 309 311 311 313 317 314 309 307 309 309 309 310 310 311 312 312 312 312 312 312 312 312 312 312 312 312 312 313 313 313 314 313 312 312 313
297 299 301 302 303 302 300 299 300 301 303 305 306 304 305 306 305 305 306 307 307 307 306 308 310 309 308 308 306 305 305 306 307 307 307 307 307 308 307 307 307 307 306 307 307 307 306 306 306 306 306 307 309 309 309 314 318 314 308 308 310 309 309 311 311 311 311 312 312 312 311 310 310 311 311 311 311 311 311 312 312 312 312 311 311 311 311
297 298 301 303 304 303 301 300 300 303 305 307 306 305 305 305 304 305 305 306 306 306 306 308 309 308 308 307 305 304 305 307 306 306 306 307 307 307 307 307 307 307 306 306 306 306 306 305 305 306 306 306 308 309 309 310 311 309 307 308 309 309 309 310 310 310 311 311 312 312 311 310 310 310 310 310 310 309 310 311 311 310 310 310 309 309 309
297 298 300 303 303 302 302 301 301 304 307 308 307 307 305 305 305 305 305 305 305 306 306 307 309 310 310 308 306 305 305 305 305 306 306 305 306 306 307 307 307 307 307 307 305 305 306 305 305 308 307 304 305 310 312 309 307 307 308 308 308 309 310 309 309 310 310 310 311 312 311 310 309 309 310 310 309 309 309 310 310 310 308 308 309 308 308
297 297 300 303 303 303 302 301 302 306 308 308 308 307 306 305 304 305 305 304 304 305 305 305 307 309 310 310 311 309 305 304 304 304 304 304 305 306 306 307 308 307 307 307 305 305 306 305 304 306 305 304 310 316 314 309 307 307 308 309 308 309 310 309 309 310 310 310 310 310 310 309 309 308 309 309 308 308 308 308 308 310 309 307 307 307 308
297 297 299 302 303 303 302 303 305 307 308 307 307 306 306 305 304 305 305 304 304 304 304 302 304 306 307 308 309 307 304 304 304 303 302 303 304 303 305 309 308 306 306 307 306 305 306 305 306 308 307 308 313 313 307 306 308 308 308 309 309 309 310 310 309 309 309 309 309 309 308 308 308 308 308 308 307 307 308 307 308 309 309 307 306 306 307
297 297 298 300 302 302 302 303 306 307 308 307 307 306 305 305 305 305 305 304 304 304 303 302 304 306 305 305 306 305 304 305 305 304 303 303 302 301 304 307 307 305 307 309 307 306 305 304 306 313 315 310 308 307 305 306 309 309 308 310 310 309 310 310 309 309 309 307 307 308 307 307 307 307 307 307 307 307 308 307 308 308 309 309 307 306 307
297 297 298 299 301 303 303 304 307 308 308 307 306 305 305 305 305 305 304 304 305 305 304 303 304 303 303 304 306 306 306 305 304 303 303 303 302 302 303 304 304 305 309 310 307 304 304 302 302 309 313 307 303 305 307 307 307 308 309 310 309 310 310 310 309 310 309 307 306 307 307 307 307 307 307 307 307 307 307 307 307 308 308 308 308 307 307
297 297 299 301 301 301 303 305 307 307 306 306 305 305 305 304 305 305 304 304 306 307 306 305 304 304 305 306 307 306 305 305 304 304 304 303 302 303 302 302 303 304 308 310 305 303 306 306 302 306 313 312 306 306 308 308 307 307 307 307 308 309 310 310 310 310 309 308 308 308 308 307 307 307 307 307 307 306 307 307 307 307 307 307 307 307 306
296 297 301 303 303 302 303 304 305 305 305 305 305 305 304 304 304 304 303 304 306 306 306 307 306 305 306 307 307 305 305 305 305 304 305 304 302 301 302 303 301 303 308 309 304 302 307 309 305 307 314 314 308 306 308 308 307 306 306 306 307 308 309 309 309 309 309 309 308 308 308 307 307 306 307 307 307 307 306 307 307 307 307 306 306 306 306
296 297 300 302 303 303 303 303 304 304 305 305 304 304 304 304 303 302 302 304 306 305 304 305 306 305 304 305 305 304 304 304 303 303 304 304 301 301 303 302 300 302 306 305 302 304 310 311 309 312 314 310 305 306 308 308 307 306 305 305 306 307 308 309 309 308 309 308 308 308 308 307 306 307 306 306 307 307 306 306 306 306 306 306 306 306 306
296 298 300 301 302 303 304 304 304 304 304 304 304 304 304 303 303 302 301 302 303 303 303 304 304 304 304 304 303 303 303 305 303 303 304 303 300 301 304 305 303 303 304 301 301 306 311 312 314 317 313 305 304 306 308 307 306 306 305 305 307 308 308 307 307 306 307 307 308 308 308 307 306 307 306 305 306 306 306 306 306 306 305 306 306 305 306
297 299 301 301 302 303 304 304 304 305 305 305 304 303 304 304 303 302 303 303 302 302 303 304 304 304 304 304 303 303 304 303 302 302 303 302 300 302 306 306 304 302 301 301 304 307 309 313 317 315 307 303 304 306 307 307 306 306 305 305 307 308 307 306 306 306 306 307 308 308 308 308 307 306 306 306 305 306 305 305 305 305 305 305 305 305 305
298 301 302 303 303 303 303 303 303 304 305 305 304 303 304 305 304 303 304 304 303 302 303 303 303 304 304 305 304 303 303 302 302 302 301 300 301 304 306 305 303 300 299 303 308 305 304 309 311 305 301 303 306 305 306 307 306 305 305 306 307 307 307 305 305 305 306 307 307 307 308 308 307 306 306 306 305 305 305 305 305 305 304 304 304 304 304
300 302 303 304 303 303 302 302 304 305 305 306 306 306 308 310 309 307 305 303 302 302 302 302 302 303 303 304 304 303 302 302 302 302 301 301 303 304 302 302 304 303 302 305 308 305 306 312 311 303 300 304 306 305 306 307 306 305 306 306 306 307 306 305 305 305 305 306 307 307 307 307 307 306 306 306 305 305 305 305 304 304 304 303 303 303 303
301 302 302 302 303 302 301 302 305 305 304 303 304 305 306 305 305 304 302 301 301 302 303 302 302 303 303 304 304 302 301 301 302 301 301 302 304 303 299 298 302 305 304 304 306 307 311 316 312 304 301 304 306 304 306 307 306 305 306 305 306 307 307 306 305 305 305 305 306 306 306 306 306 306 306 305 305 305 305 304 304 304 304 303 303 303 302
301 300 300 302 303 303 302 303 304 303 302 301 301 301 302 301 301 301 301 301 301 302 302 303 303 303 303 303 303 302 301 301 301 300 300 302 304 303 300 300 304 306 303 301 307 314 316 312 306 302 302 304 305 305 306 306 306 306 305 305 306 307 307 306 306 305 305 306 306 306 306 306 306 306 306 305 305 305 305 304 304 304 304 304 304 303 302
300 300 301 302 303 302 302 302 302 301 300 300 301 301 301 301 300 300 301 301 301 302 302 302 303 304 303 302 302 302 301 300 301 301 301 301 303 303 302 303 306 306 303 304 311 318 313 305 301 303 305 304 304 305 305 305 306 306 305 305 306 307 306 306 306 305 306 306 306 306 306 306 305 305 305 305 305 305 305 304 304 304 304 304 304 303 302
298 299 300 300 300 300 299 300 301 301 300 300 300 301 301 301 300 300 300 301 302 303 302 302 303 304 303 302 303 304 302 302 302 302 301 302 303 304 303 302 303 305 308 310 312 311 306 302 302 304 305 304 305 305 305 305 305 305 305 305 306 306 306 306 305 306 306 306 306 306 306 305 305 305 305 305 305 305 305 304 304 304 303 303 303 303 303
297 298 298 299 300 300 299 299 302 303 301 298 298 300 300 300 299 299 300 300 301 302 303 302 302 302 301 302 304 306 305 304 303 303 302 304 305 302 301 303 306 311 314 314 309 304 302 304 305 305 304 305 305 304 304 304 304 304 305 305 306 306 306 305 305 305 306 305 305 306 306 305 305 306 305 305 305 305 304 304 304 303 303 302 302 303 303
296 297 297 297 298 298 298 299 301 302 299 297 297 298 298 298 298 299 299 299 300 302 302 301 300 301 302 303 304 304 302 302 302 302 302 304 304 302 303 308 313 314 312 308 304 303 304 305 305 304 304 305 304 304 304 304 303 304 305 305 306 306 306 305 304 305 305 305 305 305 305 305 306 306 305 305 304 304 304 304 303 303 302 302 302 302 303
296 297 296 296 296 296 296 297 297 297 297 296 296 296 297 297 298 298 298 299 300 301 300 299 299 302 303 303 301 300 300 302 303 303 302 303 304 305 308 312 312 308 304 303 303 305 306 306 305 305 305 304 304 304 303 303 303 304 305 305 305 306 306 305 305 305 305 305 305 305 305 305 305 304 304 304 304 304 304 303 302 302 302 302 302 302 302
Wind_Speed
19 20 21 21 22 22 22 23 20 17 18 19 19 11 4 4 4 3 2 2 2 2 2 2 2 1 1 4 4 4 3 2 2 3 3 3 4 4 4 5 4 4 4 2 2 3 3 3 3 1 2 4 5 10 17 19 14 8 4 4 3 2 3 3 1 4 3 3 4 3 7 9 6 4 4 5 4 3 5 5 4 4 3 1 2 1 4
18 20 21 21 22 21 22 21 18 17 19 20 18 9 5 6 5 4 2 1 1 2 1 1 2 2 3 4 5 5 4 4 4 4 3 3 2 2 3 4 2 2 3 2 2 3 2 3 4 3 2 4 7 12 19 18 11 6 6 6 5 3 1 3 3 1 3 2 2 3 3 5 4 4 4 6 5 6 4 3 4 3 5 5 4 2 5
17 19 20 20 20 20 20 19 16 16 18 18 13 6 4 5 5 4 1 1 1 2 2 0 2 3 4 4 5 5 4 5 8 8 7 7 5 3 4 4 4 4 2 2 1 2 2 3 3 3 2 3 2 10 18 14 9 9 12 14 10 5 3 3 5 4 3 4 5 3 4 4 2 3 6 7 8 9 5 3 4 3 4 4 5 4 4
18 19 20 20 20 18 16 16 15 15 18 17 9 5 4 3 2 3 2 2 2 1 0 3 2 3 4 4 4 3 2 3 9 11 9 10 10 6 6 6 6 4 0 3 3 1 1 1 4 4 3 2 2 7 17 15 9 11 16 19 12 3 1 4 5 5 5 5 7 5 3 5 3 5 8 8 8 9 7 5 4 5 5 3 4 5 5
21 21 22 22 22 18 13 12 13 13 17 16 9 5 5 2 1 1 2 2 3 3 4 3 2 3 4 3 3 3 3 5 5 6 7 8 9 6 6 4 3 2 1 3 2 2 3 1 5 4 2 2 3 2 11 14 13 12 14 18 11 4 2 5 4 3 4 5 6 5 2 5 7 8 10 8 7 8 8 6 6 6 7 3 6 5 9
21 22 23 23 23 20 14 11 12 13 16 14 10 7 5 3 0 1 1 1 1 1 3 3 4 5 4 2 3 4 5 6 4 4 6 7 7 5 2 1 2 1 3 3 1 2 4 3 3 2 1 1 3 3 2 6 12 11 10 11 8 5 4 4 3 1 2 2 3 2 2 3 3 6 9 9 9 9 9 7 7 8 8 5 7 10 9
18 20 23 23 22 21 16 12 11 13 15 14 12 9 6 3 2 2 2 2 2 4 6 6 6 7 5 3 3 4 5 6 4 3 4 4 4 4 1 2 1 2 4 4 2 1 3 3 2 1 2 1 1 3 1 2 6 7 6 5 3 4 4 4 4 3 4 6 6 3 4 3 4 3 2 6 9 9 7 5 4 7 5 4 9 12 5
16 17 20 22 21 20 19 16 11 11 14 14 14 13 9 4 3 3 3 4 6 7 7 6 5 5 4 3 4 3 4 4 5 3 3 3 3 1 2 2 2 3 4 5 3 2 4 4 0 1 2 3 2 3 2 1 3 4 5 4 1 2 2 2 5 4 5 6 6 6 4 3 5 4 3 3 8 6 5 4 4 5 3 2 9 9 3
19 17 18 20 20 19 18 17 13 11 13 13 13 15 13 8 5 5 5 3 3 5 4 3 3 3 2 3 3 3 3 5 6 4 3 1 3 2 2 2 2 3 4 4 2 2 2 4 5 4 3 1 1 1 2 3 5 6 5 3 2 4 1 0 5 4 3 4 6 6 5 5 7 5 4 3 6 4 3 3 3 5 7 8 8 5 5
20 19 18 17 18 18 17 17 14 12 12 11 10 13 15 12 9 7 6 3 2 3 3 3 2 2 2 3 5 5 6 7 5 3 3 3 4 5 4 1 1 4 5 6 6 6 6 7 7 6 4 3 1 5 7 5 5 7 5 2 2 5 4 2 4 5 2 3 4 5 5 6 3 1 1 1 1 2 4 2 1 5 8 9 5 5 6
19 19 19 18 17 16 16 16 15 14 12 11 10 11 14 15 12 9 5 2 2 3 2 1 1 3 5 8 9 6 6 7 5 1 2 4 7 10 6 2 3 2 2 6 9 10 12 9 3 1 4 6 6 8 14 12 6 4 5 3 2 5 6 3 2 4 2 4 4 3 4 3 4 4 2 3 1 3 4 2 3 4 4 3 3 3 9
18 18 18 19 17 15 15 14 15 14 13 11 10 9 10 14 15 10 4 2 3 3 2 3 4 4 7 9 8 5 5 8 6 3 3 4 7 10 7 3 4 2 4 9 8 7 8 5 0 2 2 5 6 6 16 13 8 5 3 5 6 6 6 3 1 3 2 2 4 2 1 4 6 5 3 4 4 4 3 1 2 3 1 1 0 4 11
20 20 19 19 18 15 14 13 13 13 12 10 9 9 9 11 14 12 6 2 3 2 2 6 9 8 8 9 6 6 8 10 8 6 4 4 5 7 6 3 2 3 8 11 7 2 2 4 2 2 3 2 2 8 13 9 8 8 5 1 7 8 5 3 3 3 3 3 3 2 5 5 4 4 2 3 3 3 3 2 2 5 3 3 5 5 7
19 20 19 18 17 15 13 12 12 12 12 10 9 9 10 9 11 13 8 2 2 4 4 5 7 8 9 8 6 6 8 9 6 4 2 2 4 4 5 5 4 6 9 9 6 4 2 2 3 3 5 5 4 6 7 5 5 7 7 4 3 9 6 4 3 2 3 4 2 2 4 4 3 3 3 4 3 4 5 3 4 5 5 6 8 6 6
17 19 19 18 16 14 11 11 11 12 12 12 10 9 10 9 9 11 10 5 4 5 4 3 5 8 8 8 6 4 5 5 4 4 4 3 3 4 6 7 7 7 8 6 4 3 2 1 2 2 2 3 2 2 4 4 3 3 5 4 2 5 6 7 4 1 3 5 1 1 2 4 5 5 5 4 3 4 5 3 3 5 7 11 11 9 9
14 17 18 17 15 13 11 10 11 12 12 12 11 11 10 8 7 9 11 9 4 3 5 7 8 9 8 7 7 5 3 3 4 4 4 4 6 6 7 8 7 6 5 4 3 3 3 2 2 2 1 1 3 1 3 3 4 4 4 5 7 6 4 6 6 2 2 4 3 3 3 5 6 6 5 3 2 3 3 4 3 5 11 18 15 12 13
13 16 17 17 14 12 11 11 12 12 12 12 13 12 9 7 7 8 10 8 5 6 7 7 8 8 5 4 6 5 4 4 4 3 2 4 6 8 9 8 6 4 4 3 3 4 4 2 2 2 1 1 3 4 0 1 1 2 4 5 7 7 5 4 6 4 4 5 3 3 3 3 3 3 4 4 5 4 6 2 5 6 16 26 24 20 20
12 14 17 17 15 12 12 12 11 11 12 13 14 10 7 7 7 8 9 9 5 4 5 7 10 9 4 3 5 5 5 5 3 2 3 3 3 7 9 7 5 4 4 2 2 3 3 2 1 2 1 2 1 3 2 2 2 2 1 2 4 4 3 3 4 5 4 5 3 2 4 4 3 4 7 11 8 6 5 5 6 4 15 26 27 26 28
11 12 15 16 14 12 11 11 11 12 13 14 14 10 7 7 7 8 10 8 4 7 11 12 12 9 5 5 7 7 8 8 5 3 3 1 5 10 9 4 2 2 2 3 3 2 2 1 0 2 2 1 1 2 2 2 2 1 2 3 2 2 2 2 3 4 4 3 3 0 4 4 5 7 9 11 7 2 4 5 5 4 17 22 22 24 28
11 10 11 12 12 11 10 11 12 14 15 15 15 13 9 7 7 9 11 10 9 14 15 11 8 10 12 13 13 12 11 9 5 2 1 2 9 12 6 1 2 3 2 2 2 1 2 1 1 0 2 1 1 1 1 0 1 2 2 2 2 3 2 1 2 3 2 2 3 2 3 5 12 14 7 5 5 3 4 3 4 6 20 23 21 23 26
11 9 9 10 10 9 10 12 14 15 15 15 16 14 10 7 8 11 14 13 12 13 12 12 16 19 18 17 15 14 13 10 7 6 6 8 11 7 2 1 2 1 1 2 1 1 1 2 1 0 1 0 1 0 1 1 1 2 2 2 1 1 2 2 3 3 3 2 2 4 4 5 12 11 3 4 6 1 1 0 2 9 19 23 23 24 27
10 9 9 9 8 8 10 12 14 15 15 16 16 14 10 8 9 12 14 14 14 15 15 18 19 15 11 10 10 9 10 9 8 10 11 11 9 5 5 6 4 2 3 1 2 0 1 2 2 1 1 1 1 1 2 2 1 2 1 2 1 1 1 4 3 2 3 4 5 5 4 3 6 4 2 0 4 2 1 2 7 13 20 24 24 26 29
9 8 9 8 8 9 11 12 14 15 15 15 15 15 12 9 8 11 13 14 17 18 17 14 10 6 5 6 6 6 8 8 9 10 11 10 7 7 8 7 3 3 3 1 1 2 3 2 2 2 1 1 2 2 2 1 2 2 0 1 1 1 1 3 2 1 2 2 2 2 2 2 2 4 1 1 3 5 4 4 9 16 21 24 26 29 30
8 8 8 7 8 10 11 12 13 14 15 15 15 15 14 11 10 12 12 12 15 14 11 9 6 6 6 5 4 6 8 8 8 10 10 11 9 4 3 2 4 5 5 4 4 2 3 3 1 2 1 1 2 3 2 0 2 2 2 1 3 1 1 2 2 1 3 2 2 2 1 1 1 3 2 1 4 7 7 7 11 16 21 25 28 31 32
7 7 8 8 9 11 11 12 13 13 14 15 15 15 14 12 13 15 13 10 9 7 6 7 6 7 9 7 6 8 11 10 6 6 8 12 11 6 5 7 8 9 11 12 9 4 4 3 1 2 2 2 1 1 2 2 2 2 2 0 2 0 1 1 1 2 2 3 4 2 1 1 1 3 4 4 4 5 6 9 12 16 21 25 28 30 33
7 7 8 9 11 11 12 13 13 13 13 14 14 15 15 14 13 13 12 9 7 4 3 5 5 7 9 7 8 10 10 10 8 3 3 4 5 7 11 14 12 12 11 8 3 4 4 3 2 2 2 1 2 2 2 2 1 2 2 2 2 1 1 1 1 2 1 2 4 2 0 1 2 3 4 4 3 3 5 9 12 17 22 26 28 30 33
7 8 9 10 10 11 12 13 12 12 12 12 13 14 14 12 10 9 7 6 5 3 1 5 10 11 10 8 10 12 10 10 10 6 3 3 2 4 10 13 13 12 8 2 2 3 4 4 3 2 1 1 2 2 1 2 2 3 2 1 2 1 1 2 3 2 1 3 5 5 3 1 3 5 5 5 4 4 6 10 13 17 22 27 29 30 31
9 10 10 10 10 11 12 13 12 11 11 12 12 12 9 8 8 7 6 5 4 3 4 11 16 13 8 7 11 12 11 11 11 9 9 9 6 3 3 5 6 5 2 3 3 3 3 3 2 1 1 2 3 3 2 2 3 2 0 2 2 1 3 2 4 4 3 5 10 11 4 0 4 7 7 7 7 6 8 10 13 17 22 27 30 32 31
9 10 10 11 11 12 12 12 12 11 11 11 11 8 5 5 6 7 7 7 6 7 10 13 12 8 5 7 10 11 10 10 10 9 11 11 9 8 8 6 6 6 6 7 6 4 3 3 3 2 3 2 2 1 2 2 2 1 2 4 5 3 5 5 5 3 3 3 11 11 3 2 8 9 8 8 8 7 8 10 12 16 22 26 29 31 32
9 10 11 11 12 12 11 11 11 12 11 11 10 6 3 3 5 8 9 8 7 9 9 7 5 6 7 8 11 11 9 9 9 8 9 10 10 10 9 9 9 8 9 9 7 4 3 3 4 4 4 2 2 2 1 1 1 2 3 7 9 6 5 7 6 3 1 5 10 7 3 8 12 10 9 8 6 5 7 10 12 15 18 22 26 29 31
9 10 12 12 12 12 12 10 10 11 11 10 9 5 2 2 5 8 10 8 8 9 8 5 6 8 8 7 9 13 12 9 8 8 7 8 9 9 8 8 10 10 9 9 8 5 3 3 3 2 3 4 4 3 2 2 1 2 5 9 10 6 1 5 5 1 2 8 10 8 9 13 12 9 9 8 6 3 4 9 12 13 14 19 23 26 29
9 10 12 13 13 13 12 10 10 11 10 8 5 2 2 3 6 9 9 7 8 8 7 4 4 5 5 6 10 13 11 8 7 7 7 7 7 7 8 9 10 10 9 7 6 4 3 2 2 2 4 5 4 2 2 3 2 3 6 9 7 3 4 6 5 5 8 12 11 9 10 11 9 7 7 8 7 3 3 8 13 15 16 20 23 25 28
9 11 12 13 13 12 11 10 10 10 8 3 1 1 3 5 6 8 8 7 8 7 5 4 2 1 4 8 10 10 9 7 6 6 8 9 8 6 6 8 8 9 9 7 4 3 3 2 2 3 5 5 4 3 2 1 2 3 5 5 4 5 8 10 11 12 14 11 5 3 7 11 9 6 6 8 7 4 5 10 14 16 18 22 23 24 27
10 11 13 14 13 12 11 10 9 8 5 2 5 2 5 8 9 9 8 7 7 6 4 3 1 1 5 7 5 6 8 7 5 5 6 8 9 8 6 5 6 7 8 7 4 3 3 3 3 2 3 4 4 3 1 2 2 1 3 5 8 10 13 15 15 13 10 6 5 3 9 12 9 6 7 7 5 5 8 13 15 17 19 22 24 25 27
10 10 12 14 13 12 11 9 9 6 3 2 4 5 8 11 12 11 8 6 5 3 3 2 1 1 4 4 3 6 9 6 3 4 4 4 7 8 5 4 5 4 4 5 4 2 2 4 3 2 2 4 3 1 2 4 3 4 5 8 11 12 12 12 11 8 7 7 7 8 10 9 8 8 9 7 6 9 12 14 15 17 19 22 24 26 28
10 9 11 13 13 11 10 8 7 5 3 3 4 7 11 13 12 8 7 7 5 3 2 3 1 1 1 1 3 6 8 5 4 5 4 3 4 6 5 4 3 2 3 4 3 2 3 4 3 2 2 2 0 2 3 5 7 7 8 10 10 8 7 8 9 10 10 10 10 10 9 9 9 10 10 8 8 11 13 14 15 17 19 22 24 25 27
9 8 9 10 11 10 9 7 6 5 5 5 6 10 12 11 7 4 5 5 5 6 5 3 3 3 4 2 4 6 6 5 5 5 4 4 3 4 5 4 1 1 3 4 2 2 3 4 3 1 1 1 3 3 3 7 9 9 9 10 7 3 4 8 10 12 14 14 12 11 11 11 11 11 10 10 10 10 11 13 14 14 16 19 21 23 25
8 7 6 7 8 8 6 5 6 6 6 8 9 9 8 5 2 2 3 2 2 5 6 4 4 5 5 3 3 5 4 4 3 2 3 4 3 3 4 3 1 1 2 2 2 2 3 3 3 1 3 4 4 4 7 9 9 8 8 7 4 3 6 9 10 11 13 14 13 12 13 13 13 12 11 11 11 10 10 11 12 13 14 17 19 22 23
7 5 5 6 8 8 5 4 5 6 6 8 7 5 3 3 2 2 2 2 2 4 5 5 6 6 6 4 4 5 3 3 3 2 2 3 3 1 2 2 1 2 3 1 2 3 3 2 3 2 3 4 3 5 11 12 10 8 7 5 2 3 6 9 10 9 7 6 5 7 8 9 10 11 12 12 12 11 11 11 11 12 13 16 18 21 23
6 3 3 5 7 8 7 7 7 6 6 5 4 3 2 2 2 2 1 1 1 3 5 4 5 6 7 7 5 3 2 2 2 1 1 2 2 1 1 1 1 2 2 1 2 3 2 1 2 2 2 4 3 8 14 14 11 8 6 4 3 3 6 9 11 9 4 2 1 6 7 6 6 7 10 10 10 10 10 10 10 10 12 15 18 20 23
5 3 1 4 6 7 8 8 7 6 4 2 2 2 1 1 2 1 1 1 1 3 3 3 3 4 4 5 5 4 2 2 2 1 2 2 2 2 2 0 1 2 1 2 3 2 3 1 2 2 4 4 5 11 16 16 12 9 7 5 5 5 7 9 10 9 4 1 3 8 11 9 6 6 7 7 7 8 8 8 8 8 10 12 16 19 22
8 6 5 5 5 4 5 5 5 4 2 1 1 1 1 1 2 2 1 2 2 2 2 3 4 5 5 4 4 4 2 1 2 2 2 1 2 2 2 1 2 3 1 3 1 3 3 1 2 4 6 4 6 13 18 17 15 12 9 7 6 7 8 8 6 4 3 2 4 9 12 11 8 7 7 7 7 7 7 7 8 8 9 10 14 17 20
8 6 4 4 2 1 1 2 3 3 0 1 1 0 1 1 1 1 1 2 2 1 4 6 7 7 7 5 4 3 2 1 1 2 3 1 1 2 3 2 2 1 1 1 2 3 1 1 3 5 5 3 8 14 17 17 16 14 10 8 8 9 9 7 4 2 2 3 6 11 13 12 10 9 8 7 7 7 7 7 8 9 9 10 12 14 17
6 4 3 2 0 2 2 2 3 3 1 0 1 1 1 2 1 0 1 2 1 3 7 9 8 5 5 6 5 3 2 1 1 2 2 1 1 3 2 1 2 1 1 2 2 1 2 3 6 9 8 5 9 14 17 17 17 15 12 10 9 10 10 8 5 4 4 4 7 13 15 14 13 12 10 8 7 7 8 8 8 8 9 10 11 12 14
4 3 2 2 1 2 2 1 1 2 2 1 2 3 3 3 3 2 1 3 4 7 10 12 8 4 5 7 4 2 2 1 1 1 1 1 2 2 0 1 1 1 2 2 2 2 2 3 6 10 11 9 10 15 18 19 18 16 14 12 11 11 11 9 6 4 5 6 8 11 14 15 15 13 11 9 8 7 7 8 8 9 9 9 10 11 13
2 2 2 2 0 1 2 1 0 0 0 1 1 2 1 1 1 1 5 8 9 10 13 13 9 6 5 5 2 1 2 1 1 0 1 2 2 0 1 1 1 3 3 2 2 3 4 5 6 9 10 8 10 16 19 19 18 16 14 12 11 11 11 8 6 5 6 8 9 10 12 14 15 14 12 10 9 7 6 7 8 9 9 10 10 11 12
2 2 2 2 0 1 1 1 1 1 1 3 4 5 4 3 4 7 11 13 12 13 14 12 7 4 3 2 1 2 2 2 1 1 1 2 1 1 2 1 1 1 1 1 3 4 5 6 8 10 8 6 12 17 19 19 18 17 14 11 11 11 10 8 7 6 7 9 11 11 11 13 14 13 11 10 10 9 8 7 8 8 9 9 10 10 12
2 2 1 1 0 1 1 2 4 3 5 7 9 11 10 8 8 12 16 17 15 15 14 10 5 2 1 1 1 1 1 3 2 0 1 2 1 1 3 3 2 2 2 3 5 5 5 6 11 11 5 7 13 18 19 19 18 17 14 12 11 12 11 9 7 7 8 9 10 10 11 12 12 10 10 10 11 10 9 8 8 9 9 10 11 12 12
2 1 0 1 1 1 2 5 6 4 6 10 12 12 13 13 14 16 18 19 17 15 11 6 2 1 1 1 1 0 1 1 1 0 2 2 1 1 1 1 1 3 3 4 5 5 7 10 12 8 3 9 13 17 18 18 17 16 14 12 12 13 12 9 7 7 8 9 8 8 9 11 10 10 10 10 10 10 10 9 9 10 10 11 13 14 14
1 1 1 1 1 3 5 6 4 2 6 12 13 13 14 16 16 17 18 20 19 14 8 4 3 2 1 1 2 1 1 1 1 2 1 0 1 2 1 1 3 4 4 5 6 8 11 11 8 4 4 9 13 15 16 16 16 15 14 12 12 12 11 9 7 7 8 8 8 9 10 10 10 9 9 8 10 11 11 10 9 10 10 11 14 16 16
1 1 1 1 1 3 4 3 2 3 4 7 9 11 14 15 15 16 18 19 17 12 6 3 3 3 2 1 1 1 1 0 2 2 0 2 2 3 2 3 6 6 6 9 11 11 9 6 3 1 4 8 12 14 14 15 15 15 14 13 11 10 10 10 9 8 7 7 8 9 9 9 9 9 8 8 10 12 12 11 10 10 11 12 12 14 17
1 1 2 2 2 3 3 2 2 2 3 4 8 10 10 10 12 15 16 14 12 9 5 4 2 2 2 0 1 1 1 1 2 1 1 2 2 4 5 6 6 6 9 14 13 8 3 1 1 1 2 5 9 12 13 14 15 15 15 14 12 11 11 12 10 8 7 7 7 7 8 9 10 10 10 11 11 12 12 12 11 11 12 12 12 13 16
Wind_Direction
355 353 351 351 351 353 355 354 353 359 0 358 360 5 36 61 74 108 98 141 144 60 20 337 349 321 298 312 296 294 305 290 287 296 283 255 237 238 253 236 225 234 226 208 139 138 136 151 172 165 169 197 213 189 170 159 154 151 157 184 188 157 119 111 238 279 298 313 356 79 156 156 155 189 173 157 172 154 154 178 167 139 153 150 88 29 268
352 352 350 349 349 351 354 353 353 1 4 1 3 17 60 62 71 86 71 127 107 56 38 330 324 310 314 308 287 269 248 231 244 262 245 233 260 289 255 237 256 285 258 223 166 146 142 170 183 166 158 217 213 183 171 164 157 163 181 178 166 178 165 96 106 33 2 3 32 66 143 170 177 188 177 176 156 108 113 138 109 144 192 156 128 216 258
350 351 348 345 346 349 351 351 353 358 2 3 10 33 58 47 51 52 33 266 23 68 126 339 308 315 317 292 278 270 246 226 230 238 241 231 230 257 263 277 302 289 292 349 360 109 123 169 179 154 171 244 219 173 178 174 158 173 180 165 155 170 190 116 121 146 156 176 189 186 177 185 193 159 170 178 153 136 146 131 114 181 204 146 148 200 242
355 353 351 348 349 351 350 349 352 357 1 7 24 55 36 27 41 13 323 295 344 8 305 331 319 320 319 291 282 273 257 260 242 238 248 237 219 229 263 283 294 269 197 30 6 14 18 187 162 135 163 243 331 167 179 181 175 178 170 157 145 120 173 154 143 163 176 189 217 234 167 153 173 170 170 177 168 154 136 118 157 183 155 167 215 181 156
1 359 359 360 359 358 355 353 357 2 4 10 29 47 28 36 140 356 338 308 318 299 294 304 280 293 312 313 311 279 266 301 271 227 236 232 207 213 245 244 254 255 110 64 21 338 345 78 141 133 165 244 327 161 175 183 188 181 162 155 142 82 191 183 135 161 204 204 227 256 208 172 177 169 169 174 168 147 129 145 188 158 128 207 248 175 158
4 0 1 3 4 3 2 356 355 4 10 16 29 34 26 31 358 285 318 294 295 289 286 273 253 263 269 269 293 284 276 292 282 227 250 245 206 195 239 250 249 250 115 105 62 350 9 43 91 93 101 38 360 28 123 194 195 180 159 164 149 107 187 201 114 108 297 342 301 281 139 147 135 149 168 168 165 168 164 175 183 153 148 210 210 178 180
4 2 2 3 4 4 4 356 350 3 14 23 35 36 28 24 3 331 306 274 257 269 280 279 265 254 244 239 251 259 266 278 283 265 279 284 218 180 120 32 357 40 90 100 79 58 70 54 21 35 89 63 62 90 63 239 203 172 153 177 161 115 182 192 128 92 8 9 352 14 111 117 61 63 176 167 166 175 165 159 166 147 152 197 170 169 196
2 5 5 3 2 4 6 0 353 4 14 21 33 31 19 6 343 320 295 269 270 278 280 282 279 266 247 239 243 240 251 304 331 301 262 317 340 65 68 25 5 35 73 97 110 104 108 117 148 20 88 76 91 152 178 177 152 147 155 184 191 119 187 184 113 75 359 5 11 19 56 113 99 60 3 121 136 133 117 130 140 110 81 101 136 149 228
360 5 8 4 2 4 6 3 358 7 14 16 23 22 16 16 6 334 310 275 268 285 279 264 279 287 245 240 286 301 289 329 344 309 256 315 5 2 338 322 341 21 52 66 68 64 116 176 231 246 193 160 331 192 189 156 141 148 159 167 142 120 129 72 98 98 311 355 23 2 9 65 88 64 24 107 129 127 132 146 156 143 128 114 115 146 224
358 1 4 4 3 4 6 4 2 7 13 17 20 14 10 13 15 359 341 318 289 312 303 266 281 311 285 297 329 325 306 324 342 325 310 346 16 356 331 250 35 29 39 23 358 347 325 292 282 270 224 224 235 118 107 101 129 152 149 106 123 137 131 120 115 132 245 332 13 342 11 61 76 13 37 161 143 119 127 113 199 174 144 133 149 200 190
358 357 357 360 3 6 8 8 5 5 13 20 19 9 2 358 351 344 345 336 296 312 319 301 324 336 323 324 332 323 308 325 342 5 328 328 350 356 359 85 86 66 40 360 343 325 315 313 307 180 149 171 179 114 84 64 58 127 145 117 114 137 129 132 135 136 207 300 333 351 41 104 223 251 198 198 208 133 137 164 212 192 149 145 227 199 151
358 355 355 357 359 2 7 8 5 7 15 18 12 4 357 350 343 337 335 321 309 319 342 327 313 313 314 318 323 309 294 306 306 283 261 280 326 349 358 54 82 77 345 350 345 311 306 323 180 192 164 191 203 77 59 47 25 28 105 137 139 135 127 125 83 108 130 337 1 16 228 226 248 279 254 215 202 168 142 100 202 191 139 69 164 159 156
357 355 354 355 355 358 3 5 5 9 14 14 9 360 348 343 342 338 328 306 303 309 324 313 303 303 313 318 316 300 301 312 310 292 261 254 301 341 355 10 43 359 345 353 8 29 323 340 334 302 333 331 330 30 37 27 14 22 18 109 143 139 134 121 80 84 117 79 63 195 241 261 288 313 278 186 169 165 116 73 223 207 184 152 138 150 158
357 353 351 352 353 355 359 2 5 6 7 7 3 353 345 336 329 330 329 318 286 292 293 298 303 312 323 324 321 316 320 334 340 318 294 268 276 316 352 354 339 337 340 348 18 67 75 356 11 1 351 6 17 9 2 351 14 40 16 340 146 141 136 116 75 48 119 118 146 247 303 313 301 290 238 175 170 179 145 125 245 223 183 155 140 143 151
358 352 350 351 351 355 358 360 2 1 359 1 357 343 335 325 319 327 330 318 298 291 275 276 313 322 323 321 327 335 335 346 350 325 321 332 324 335 357 358 344 335 339 354 35 66 74 47 59 47 10 41 69 345 331 333 340 34 41 15 65 129 145 147 137 89 96 103 112 288 322 278 248 241 235 216 203 188 148 111 289 251 185 164 153 150 152
1 355 350 349 348 352 355 354 357 358 355 357 355 344 334 325 317 324 327 321 308 290 296 309 320 320 317 321 337 352 351 343 347 340 336 349 350 349 355 358 349 341 355 30 57 63 63 56 85 114 128 128 132 138 325 332 328 338 14 47 62 68 89 126 123 114 118 123 146 184 205 241 242 233 238 232 178 165 113 71 310 251 182 167 159 155 159
1 356 349 347 346 345 347 348 354 358 356 355 356 350 343 339 330 323 324 320 296 286 308 329 338 333 324 324 340 355 353 337 341 351 328 317 324 336 350 2 8 11 25 44 40 45 66 68 65 91 115 232 134 126 303 313 5 325 334 19 56 62 46 77 114 140 157 145 159 211 222 236 243 233 218 178 144 99 80 96 271 241 180 172 169 164 166
355 353 347 347 344 339 341 348 354 359 358 355 357 358 347 336 334 328 325 321 295 276 305 325 324 320 313 302 314 325 335 334 335 323 302 284 296 322 331 346 12 20 25 51 62 56 68 73 86 118 156 286 134 132 167 194 171 189 248 33 48 50 37 71 127 143 148 142 145 247 248 235 234 213 174 154 130 75 100 184 254 234 175 177 177 170 168
345 345 344 346 344 339 343 349 354 358 358 354 357 2 347 323 320 324 329 333 307 289 306 311 307 305 310 306 299 302 315 317 305 304 319 327 334 331 324 323 5 11 30 66 80 84 79 67 217 130 123 284 277 133 149 166 176 183 147 117 110 99 65 73 120 127 136 147 129 81 269 237 173 153 153 149 137 119 200 225 286 204 175 178 180 176 172
333 335 342 343 341 342 346 349 351 353 355 353 353 358 353 328 313 312 320 326 310 305 316 326 314 309 314 307 296 294 303 304 291 276 183 269 325 340 357 78 6 360 28 57 66 110 116 155 255 106 114 205 247 118 118 260 232 211 184 152 164 165 144 136 161 143 112 54 83 113 257 203 148 133 135 169 176 209 238 279 321 190 178 175 175 178 176
324 329 342 344 342 346 346 345 347 349 349 348 348 355 1 344 318 306 307 311 303 299 314 324 315 314 314 308 299 290 281 278 277 271 263 281 308 337 41 245 305 318 149 125 130 157 135 160 212 160 122 196 325 173 162 74 336 252 204 159 170 190 144 163 211 184 127 107 167 191 248 211 163 145 137 206 190 177 349 230 156 171 176 174 172 174 177
325 333 345 345 342 344 340 339 342 343 342 342 342 349 359 345 317 307 309 308 296 290 301 312 317 324 325 314 311 298 281 286 293 277 268 276 287 279 258 270 288 256 224 143 96 140 143 144 161 152 147 144 72 94 129 120 175 276 301 123 144 286 193 170 185 189 161 176 212 232 283 267 195 189 357 17 183 182 18 184 176 172 175 176 172 170 174
328 336 343 339 334 333 332 335 338 336 336 338 337 341 349 347 327 319 320 318 312 311 314 317 329 8 6 318 311 302 291 295 295 279 265 259 268 278 265 262 310 311 252 183 113 182 163 147 155 144 148 167 134 101 75 95 212 231 69 78 272 276 201 148 120 191 214 214 241 259 309 336 204 212 307 15 190 194 194 204 191 179 179 181 178 174 174
327 330 332 325 322 324 326 331 334 331 331 335 334 336 343 346 336 330 329 327 326 329 328 319 333 27 19 344 337 335 324 313 297 285 262 240 240 269 279 282 348 334 301 305 305 237 147 125 138 119 106 176 145 116 109 190 240 192 128 5 318 284 127 88 77 140 191 236 315 322 333 3 146 181 199 194 188 194 198 204 199 187 183 184 182 179 177
319 318 319 315 317 323 326 328 329 329 329 330 332 335 338 338 332 327 327 329 331 333 325 312 330 11 7 1 25 13 355 350 330 280 248 239 241 256 289 303 316 314 309 307 291 236 144 104 117 121 120 173 175 141 157 178 204 163 130 213 271 293 46 35 65 113 160 252 285 302 28 29 150 167 185 193 195 206 206 199 197 191 185 184 184 183 179
309 303 306 312 318 323 324 324 325 326 326 327 331 334 334 334 330 321 319 325 319 303 294 290 310 353 360 13 37 25 10 14 12 330 250 249 258 266 280 290 303 315 319 314 264 184 131 95 98 113 115 162 163 152 161 163 130 91 103 211 239 344 360 180 117 70 47 275 276 275 54 316 249 193 192 192 191 210 207 196 194 190 183 180 181 183 183
301 296 299 306 314 317 318 320 322 324 327 330 335 334 332 337 342 330 327 338 331 319 287 282 300 330 357 23 32 29 32 38 31 26 52 57 7 277 273 279 296 310 305 262 165 125 98 77 70 102 145 134 97 94 124 135 106 87 80 300 322 21 171 164 110 88 271 251 219 186 167 242 221 191 179 170 166 182 190 187 187 186 183 180 177 176 179
290 293 294 297 303 310 315 319 320 326 334 338 338 338 337 348 3 360 356 359 347 320 288 290 301 322 357 22 28 32 36 32 31 45 60 57 47 22 312 284 301 321 288 166 120 70 70 71 72 109 124 85 72 51 35 68 67 67 278 305 328 207 197 182 143 159 250 245 198 183 169 118 174 167 159 156 156 165 173 176 182 186 184 183 180 176 173
279 284 285 286 293 305 313 317 319 327 339 345 345 347 339 344 7 13 4 356 346 329 316 308 310 326 339 351 12 27 31 24 26 43 55 56 58 57 51 56 64 64 83 96 88 73 69 81 92 66 26 34 94 61 32 57 61 231 253 312 327 286 251 241 199 194 302 224 185 189 206 147 152 153 151 154 158 166 168 166 176 184 182 182 183 181 177
277 277 279 280 286 299 310 314 317 325 338 347 351 356 348 337 359 5 356 348 342 341 337 317 307 332 339 346 2 9 12 15 18 31 48 52 50 49 54 61 65 68 79 84 80 78 74 62 58 55 42 50 98 112 107 109 192 252 292 337 341 320 260 230 215 235 300 162 169 184 181 146 143 142 144 146 150 167 172 166 170 179 182 182 182 181 180
276 269 272 274 279 291 304 311 315 324 335 341 341 341 334 328 340 346 346 342 338 342 338 293 283 323 344 357 1 358 357 2 11 21 42 50 45 43 48 56 57 58 66 76 77 78 76 47 28 33 41 46 69 112 127 112 164 267 327 349 350 348 192 177 178 204 191 168 157 143 135 138 139 140 143 141 137 150 185 181 176 178 184 187 184 181 178
276 262 263 265 270 283 299 308 313 323 333 338 338 338 336 336 340 339 335 330 332 340 342 319 306 329 338 340 353 0 2 3 10 22 35 42 47 48 46 50 53 49 48 63 77 66 46 36 35 31 29 38 64 104 86 92 166 260 332 356 3 32 121 144 142 132 149 155 143 126 133 143 145 147 150 149 145 147 193 188 181 180 183 182 180 177 174
279 263 258 257 263 277 293 306 315 323 329 321 183 110 357 352 351 343 330 321 325 333 342 351 354 308 304 322 345 4 7 6 17 34 37 33 34 44 47 48 49 44 39 49 71 57 41 51 55 36 31 37 64 92 82 102 211 282 343 19 62 107 127 135 135 136 141 141 117 109 162 162 150 141 154 156 150 160 194 185 177 175 175 172 169 167 166
282 267 256 253 261 275 287 302 314 320 318 228 198 242 332 337 335 332 325 316 317 321 331 356 19 297 306 316 338 6 5 8 26 37 32 27 27 34 41 38 39 40 37 40 54 68 52 32 13 3 5 10 34 70 114 252 261 30 74 102 113 121 128 130 130 133 133 107 55 96 158 158 143 131 148 155 153 168 179 176 173 170 165 162 161 161 163
286 269 256 253 260 271 283 299 308 304 288 219 222 272 311 317 316 313 304 294 304 322 340 356 26 329 330 326 333 355 360 8 28 19 14 22 28 32 36 37 39 37 26 31 52 64 26 11 358 327 331 350 9 76 217 227 188 123 119 126 125 125 128 126 123 123 112 90 89 116 140 147 140 137 144 149 155 166 167 165 170 172 164 156 157 160 164
289 269 254 253 260 268 277 293 298 282 243 216 242 287 304 308 308 298 267 252 258 272 308 342 343 190 199 264 278 320 347 2 4 359 5 18 21 25 38 53 53 26 9 29 53 35 4 7 360 331 356 15 272 225 210 179 157 142 139 141 135 129 128 130 131 129 119 108 109 121 131 136 136 139 144 148 152 162 165 161 164 170 167 159 158 161 164
294 277 256 247 253 264 273 280 277 264 251 255 278 297 301 301 303 287 245 239 248 249 251 287 292 238 210 219 276 305 329 336 332 351 21 25 360 8 34 50 59 353 13 29 36 2 357 17 33 22 316 240 235 235 191 162 157 151 146 146 146 141 143 142 139 133 123 116 118 125 131 136 139 143 149 153 155 164 171 167 168 175 175 169 166 167 168
295 277 252 233 235 247 258 259 250 250 267 284 293 300 296 278 260 257 235 209 229 237 226 230 258 243 209 207 279 299 316 335 344 9 31 21 356 355 23 36 47 33 19 347 317 348 8 31 49 38 265 270 269 228 190 173 163 152 147 149 148 147 157 161 158 145 130 123 130 142 144 145 151 157 160 160 162 169 173 172 174 181 183 178 174 173 172
303 274 233 210 211 219 228 241 245 258 283 291 287 282 258 225 227 249 212 180 208 223 209 218 245 236 207 213 276 294 302 348 13 24 33 29 25 5 9 21 31 40 40 360 335 9 9 352 11 3 294 294 288 201 187 181 170 154 148 148 140 150 167 175 175 165 138 113 134 162 155 143 151 164 168 166 168 172 175 176 178 180 181 180 177 174 174
302 279 217 198 205 215 227 245 263 282 296 290 269 254 234 218 219 209 167 161 235 216 201 223 262 257 230 230 257 282 291 330 355 19 103 65 42 35 51 39 11 37 40 316 318 16 44 326 352 358 289 271 232 188 185 184 177 164 155 156 161 172 181 181 180 182 170 74 147 186 170 135 128 150 161 163 167 170 175 179 180 181 182 182 179 177 177
337 341 278 234 230 231 237 250 268 283 285 251 234 257 262 243 249 238 163 129 277 250 232 258 301 305 271 250 255 269 286 317 347 38 94 62 34 54 73 344 335 53 64 276 299 48 81 60 354 301 258 246 202 186 187 186 180 172 174 180 176 178 185 186 187 192 189 126 181 189 176 155 133 132 141 147 151 154 161 170 175 178 183 183 182 181 181
341 334 303 275 260 249 249 250 251 256 251 207 222 302 313 272 277 282 223 213 245 286 343 342 327 326 328 315 295 289 296 323 346 15 49 35 24 65 88 340 12 64 143 261 325 55 61 20 304 265 261 245 192 186 189 189 184 180 182 184 177 174 178 182 194 213 214 197 205 196 181 168 157 145 136 132 133 136 140 147 153 161 171 179 183 184 184
329 328 316 294 269 213 239 234 210 204 203 68 109 299 325 324 304 297 271 248 242 12 18 2 350 350 353 348 327 306 302 313 357 41 65 66 15 55 66 39 25 39 252 286 48 59 49 228 227 247 265 238 192 190 189 186 184 183 181 180 179 177 175 177 192 209 182 179 201 200 190 181 175 165 154 143 136 134 134 135 140 146 154 164 175 182 185
323 327 329 315 189 137 146 195 193 187 203 359 153 165 266 295 276 251 320 295 310 14 7 358 355 357 349 340 328 301 273 294 17 53 66 54 32 56 60 337 282 276 304 6 38 20 277 243 236 249 261 241 200 191 185 180 181 182 178 175 178 179 174 168 165 159 145 156 194 201 198 193 187 179 172 167 157 147 145 149 152 153 153 156 166 177 183
330 338 3 14 94 149 158 187 190 178 202 227 185 162 170 206 216 210 3 352 352 1 359 354 348 326 316 327 330 291 266 332 20 47 67 58 55 58 73 249 266 49 36 23 13 323 296 273 256 262 269 255 211 191 183 180 181 181 178 175 178 182 177 167 159 165 165 166 186 201 205 202 196 188 182 182 180 168 154 152 159 166 165 163 167 174 180
356 6 37 52 228 200 170 161 303 284 238 232 203 180 177 200 185 57 20 5 355 352 350 347 339 318 308 319 323 282 298 354 50 57 54 74 75 330 260 240 49 43 39 18 333 286 256 250 267 286 289 262 206 189 185 183 181 181 182 181 182 184 184 178 175 183 184 180 186 199 208 208 202 195 187 182 182 180 166 154 157 167 172 171 171 173 177
2 5 48 78 316 282 161 157 245 302 13 37 40 37 36 52 65 41 21 8 358 351 348 344 339 325 312 308 267 275 321 35 78 360 20 86 126 316 360 37 30 44 105 214 265 257 238 249 286 305 299 239 195 186 184 184 183 184 186 188 185 182 183 186 186 179 179 185 189 192 199 203 200 194 187 183 182 181 173 159 153 160 169 173 173 172 172
360 3 54 118 242 207 200 304 337 14 57 61 52 46 49 58 50 26 13 7 3 356 348 341 338 337 336 13 153 245 352 44 70 342 11 80 100 360 14 20 325 278 201 204 228 232 237 278 307 315 295 206 192 187 184 184 186 186 186 188 186 180 178 186 189 174 171 180 185 185 191 195 192 185 185 187 185 180 175 168 161 159 165 173 177 177 176
348 352 278 272 263 230 288 319 331 9 50 48 41 37 38 39 31 17 8 7 6 2 355 354 13 353 293 334 59 20 332 30 82 56 25 49 81 143 102 84 297 290 261 215 216 241 276 301 315 316 251 191 189 190 187 185 186 188 188 189 188 181 179 185 188 176 172 179 183 181 183 187 188 189 191 190 184 178 176 174 170 167 169 178 184 183 180
315 302 296 298 283 306 337 348 345 348 14 24 28 25 18 15 15 12 8 5 3 3 13 43 50 13 300 16 46 20 288 231 128 95 63 97 165 141 114 226 236 239 236 233 253 284 300 310 320 307 209 187 185 190 192 188 187 189 189 187 187 185 181 182 185 183 180 183 186 185 185 188 194 199 197 187 180 178 174 170 170 170 169 175 184 188 185
277 277 289 301 296 318 342 356 315 293 337 13 23 14 3 0 3 5 3 2 4 12 25 27 1 357 22 67 50 346 275 153 98 91 140 224 174 130 146 230 225 222 253 287 304 310 309 311 328 285 210 193 188 192 194 190 187 187 186 185 187 186 181 181 190 195 190 186 188 190 189 188 191 192 188 182 180 179 171 164 163 167 166 166 174 183 182
180 295 317 320 327 347 360 351 320 316 337 351 353 355 358 359 358 357 358 7 19 22 360 327 335 46 73 43 293 299 360 38 54 84 233 243 188 163 190 226 237 249 280 302 316 324 313 306 37 56 218 206 196 193 191 187 185 185 185 186 188 184 179 183 193 198 190 184 186 188 187 185 183 183 181 181 184 185 178 167 161 165 170 168 164 166 170